Weather Roundup
Issued by NWS Chicago, IL

Home | Current Version | Previous Version | Text Only | Print | Product List | Glossary On
Versions: 1 2 3 4 5 6 7 8 9 10 11 12 13 14 15 16 17 18 19 20 21 22 23 24 25 26 27 28 29 30 31 32 33 34 35 36 37 38 39 40 41 42 43 44 45 46 47 48 49 50
000
NZUS59 KLOT 240310
HRRLOT

CHICAGO AREA WEATHER ROUNDUP
NATIONAL WEATHER SERVICE CHICAGO/ROMEOVILLE IL
1000 PM CDT WED JUL 23 2014

NOTE: "FAIR" INDICATES FEW OR NO CLOUDS BELOW 12,000 FEET WITH NO
SIGNIFICANT WEATHER AND/OR OBSTRUCTIONS TO VISIBILITY.

* THESE STATIONS ARE NOT UNDER NWS QUALITY CONTROL. THEY ALSO MAY NOT
  REPORT WEATHER SUCH AS PRECIPITATION OR FOG.

ILZ005-006-012>014-019>023-240400-
NORTHEAST ILLINOIS

CITY           SKY/WX    TMP DP  RH WIND       PRES   REMARKS
OHARE          PTCLDY    62  49  62 N12       30.13S
MIDWAY         CLEAR     65  51  60 N10       30.13S
AURORA         CLEAR     60  49  66 NE6       30.16R
LANSING*       CLEAR     62  51  68 N8G16     30.13S
JOLIET*        CLEAR     61  49  64 N3        30.15S
WAUKEGAN       CLEAR     60  50  69 N7        30.15S
DUPAGE AIRPORT CLEAR     58  48  69 N7        30.15R
WHEELING       CLEAR     62  50  64 N9        30.16S
KANKAKEE*      CLEAR     60  51  73 N6        30.13F
MORRIS*        CLEAR     59  55  85 CALM      30.14S
LEWIS AIRPORT* CLEAR     60  49  67 N6        30.14S
NORTHERLY IS     N/A     62  52  69 MISG        N/A
$$

WIZ051-052-058>065-066-070>072-240400-
SOUTHEAST WISCONSIN

CITY           SKY/WX    TMP DP  RH WIND       PRES   REMARKS
MILWAUKEE      PTCLDY    59  51  75 N7        30.17R
KENOSHA*       CLEAR     58  53  84 N6        30.17R
RACINE*        CLEAR     58  53  84 N7        30.18R
BURLINGTON     CLEAR     54  50  87 CALM      30.17S
WAUKESHA       CLEAR     55  46  71 CALM      30.19S
WEST BEND      CLEAR     57  46  67 CALM      30.18S
$$

INZ001>003-010>013-019-020-240400-
NORTHWEST INDIANA

CITY           SKY/WX    TMP DP  RH WIND       PRES   REMARKS
GARY*          CLEAR     64  53  67 N9        30.13S
MICHIGAN CITY* NOT AVBL
RENSSELAER*    NOT AVBL
VALPARAISO     CLEAR     57  52  83 N3        30.11F
$$

LMZ740>746-240400-
SOUTHERN LAKE MICHIGAN

STATION/POSITION TIME  SKY/WX   TEMP WIND        PRES    VSBY
                                AIR  DIR/SP/G
                 (UTC)          (F)  (DEG/KT/KT) (MB)    (MI)
HARRISON CRIB    0300            63  360/ 21/ 24   N/A
BURNHAM HARBOR   0300            62  360/ 13/ 15   N/A
CALUMET HARBOR   0300            63  350/  7/ 15 1019.1F
BURNS HARBOR     NOT AVBL
MICHIGAN CITY    0300            63   10/ 18/ 21   N/A
$$

ABBREVIATIONS USED IN REMARKS
   TC - TEMPERATURE IN CELSIUS
  WCI - WIND CHILL INDEX
   HX - HEAT INDEX
  VSB - VISIBILITY
$$


USA.gov is the U.S. government's official web portal to all federal, state and local government web resources and services.